User: anonymous   Login
Location: Cucq
(50.4773°N, 1.6202°E)
Time: 09:13:30
(UTC+00:00)
Language:

Cosmos 2228 - Orbit

View from above orbital plane
View from above orbital plane
View from above satellite
View from above satellite

Ground track
Ground track

The orbit data is extracted from the following two-line orbital elements,

1 22286U 92094A   20293.56652270 +.00000181 +00000-0 +16792-4 0  9992
2 22286 082.5170 302.7612 0021940 032.7572 327.5000 14.88175813503975
Epoch (UTC): 19 October 2020 13:35:47
Eccentricity: 0.0021940
inclination: 82.5170°
perigee height: 588 km
apogee height: 619 km
right ascension of ascending node: 302.7612°
argument of perigee: 32.7572°
revolutions per day: 14.88175813
mean anomaly at epoch: 327.5000°
orbit number at epoch: 50397

The dashed part of the orbit path shows where the satellite is in the earth's shadow,  

DLR